Santa Fe, NM

10:45 AM MST on December 18, 2017 (GMT -0700)
Santa Fe Municipal

Weather History for KSAF - January, 2014

Change the Weather History Date:

Friday, January 31, 2014

  Actual Average Record
Temperature  
Mean Temperature 45 °F -  
Max Temperature 53 °F 50 °F 59 °F (2003)
Min Temperature 37 °F 23 °F 3 °F (2002)
Degree Days  
Heating Degree Days 20    
Moisture  
Dew Point 24 °F    
Average Humidity 43    
Maximum Humidity 59    
Minimum Humidity 31    
Precipitation  
Precipitation 0.00 in - - ()
Sea Level Pressure  
Sea Level Pressure 29.59 in    
Wind  
Wind Speed 16 mph (WSW)    
Max Wind Speed 33 mph    
Max Gust Speed 50 mph    
Visibility 10 miles    
Events Rain    
Averages and records for this station are not official NWS values.
T = Trace of Precipitation, MM = Missing Value Source: NWS Daily Summary

Daily Weather History Graph

Daily Weather History Graph

Search for Another Location

Airport or City:

Trip Planner

Search our weather history database for the weather conditions in past years. The results will help you decide how hot, cold, wet, or windy it might be!

Date:

Astronomy

Jan. 31, 2014 Rise Set
Actual Time 7:04 AM MST 5:31 PM MST
Civil Twilight 6:38 AM MST 5:57 PM MST
Nautical Twilight 6:07 AM MST 6:28 PM MST
Astronomical Twilight 5:37 AM MST 6:58 PM MST
Moon 7:20 AM MST (1/31) 6:54 PM MST (1/31)
Length of Visible Light 11h 19m
Length of Day
10h 26m
New Moon, 1% of the Moon is Illuminated
Jan 31
New Moon
Feb 6
First Quarter
Feb 14
Full
Feb 22
Last Quarter
Mar 1
New

Hourly Weather History & Observations

Time (MST) Temp. Windchill Dew Point Humidity Pressure Visibility Wind Dir Wind Speed Gust Speed Precip Events Conditions
12:53 AM 48.9 °F - 27.0 °F 43% 29.57 in 10.0 mi WSW 15.0 mph 24.2 mph N/A   Overcast
1:53 AM 48.0 °F - 27.0 °F 44% 29.58 in 10.0 mi WSW 11.5 mph - N/A   Overcast
2:53 AM 46.9 °F - 27.0 °F 46% 29.59 in 10.0 mi West 11.5 mph - N/A   Overcast
3:53 AM 46.0 °F 40.6 °F 27.0 °F 47% 29.58 in 10.0 mi West 11.5 mph - N/A   Overcast
4:53 AM 45.0 °F 38.9 °F 27.0 °F 49% 29.59 in 10.0 mi West 12.7 mph - N/A   Overcast
5:53 AM 45.0 °F 38.9 °F 26.1 °F 48% 29.62 in 10.0 mi West 12.7 mph - N/A   Overcast
6:53 AM 44.1 °F 39.0 °F 26.1 °F 49% 29.64 in 10.0 mi WSW 9.2 mph - N/A   Overcast
7:53 AM 46.0 °F 40.2 °F 26.1 °F 46% 29.64 in 10.0 mi WSW 12.7 mph - N/A   Mostly Cloudy
8:53 AM 48.0 °F - 25.0 °F 41% 29.64 in 10.0 mi WSW 13.8 mph - N/A   Overcast
9:53 AM 50.0 °F - 25.0 °F 38% 29.63 in 10.0 mi WSW 18.4 mph 28.8 mph N/A   Clear
10:53 AM 52.0 °F - 25.0 °F 35% 29.61 in 10.0 mi WSW 16.1 mph 24.2 mph N/A   Clear
11:53 AM 52.0 °F - 24.1 °F 34% 29.59 in 10.0 mi WSW 17.3 mph 31.1 mph N/A   Overcast
12:53 PM 52.0 °F - 24.1 °F 34% 29.53 in 10.0 mi SW 24.2 mph 33.4 mph N/A   Mostly Cloudy
1:53 PM 53.1 °F - 26.1 °F 35% 29.50 in 8.0 mi WSW 33.4 mph 42.6 mph 0.00 in   Scattered Clouds
2:53 PM 53.1 °F - 25.0 °F 34% 29.49 in 10.0 mi WSW 27.6 mph 41.4 mph N/A   Clear
3:53 PM 52.0 °F - 23.0 °F 32% 29.49 in 9.0 mi WSW 26.5 mph 39.1 mph N/A   Mostly Cloudy
4:53 PM 50.0 °F - 21.9 °F 33% 29.50 in 7.0 mi WSW 28.8 mph 44.9 mph 0.00 in   Mostly Cloudy
5:53 PM 45.0 °F 34.7 °F 26.1 °F 48% 29.57 in 8.0 mi WSW 33.4 mph 49.5 mph 0.00 in Rain Light Rain
6:53 PM 46.0 °F 38.3 °F 17.1 °F 31% 29.58 in 10.0 mi West 20.7 mph 33.4 mph 0.00 in   Overcast
7:53 PM 42.1 °F 34.9 °F 21.0 °F 43% 29.62 in 10.0 mi WNW 13.8 mph 24.2 mph N/A   Overcast
8:53 PM 39.9 °F 31.4 °F 19.9 °F 45% 29.64 in 10.0 mi West 16.1 mph 25.3 mph N/A   Clear
9:53 PM 37.9 °F 28.5 °F 21.9 °F 53% 29.65 in 10.0 mi West 17.3 mph - N/A   Clear
10:53 PM 37.0 °F 26.2 °F 24.1 °F 59% 29.63 in 10.0 mi WNW 21.9 mph 31.1 mph N/A   Clear
11:53 PM 37.0 °F 29.8 °F 24.1 °F 59% 29.63 in 10.0 mi West 10.4 mph - N/A   Clear